This demonstration page uses our WeatherBlox Daily Observations layout. Learn more.

Left ArrowRight Arrow

39.92423, -83.80882

Hourly Observations for May 7, 2018

Temp ( °F °C ) Dew Point ( °F °C ) Humidity (%) Winds ( mph kmh ) Pressure ( in mb ) Visibility ( mi km ) Precip ( " mm )
12:56 am 00:56 Clear with Mist and Fog 53 11.7 52 11.1 96 96 N 3 6 30.03 1017 3 4.82802 0 0
1:56 am 01:56 Clear 53 11.7 52 11.1 96 96 N 3 6 30.04 1017 9 14.48406 0.01 0.254
2:56 am 02:56 Cloudy 54 12.2 53 11.7 97 97 N 6 9 30.04 1017 8 12.87472 0 0
3:56 am 03:56 Clear 51 10.6 48 8.9 89 89 NE 7 11 30.05 1018 10 16.0934 0 0
4:56 am 04:56 Mostly Cloudy 50 10 47 8.3 89 89 NNE 6 9 30.05 1018 10 16.0934 0 0
5:56 am 05:56 Mostly Cloudy 50 10 47 8.3 89 89 N 8 13 30.08 1019 10 16.0934 0 0
6:56 am 06:56 Mostly Sunny 49 9.4 47 8.3 93 93 N 8 13 30.11 1020 10 16.0934 0 0
7:56 am 07:56 Sunny 52 11.1 48 8.9 86 86 NNE 8 13 30.13 1020 10 16.0934 0 0
8:56 am 08:56 Sunny 55 12.8 49 9.4 80 80 NNE 9 15 30.15 1021 10 16.0934 0.01 0.254
9:56 am 09:56 Sunny 59 15 50 10 72 72 NNE 14 22 30.15 1021 10 16.0934 0 0
10:56 am 10:56 Sunny 61 16.1 51 10.6 70 70 NNE 15 24 30.16 1021 10 16.0934 0 0
11:56 am 11:56 Sunny 64 17.8 50 10 60 60 NNE 15 24 30.16 1022 10 16.0934 0 0
12:56 pm 12:56 Sunny 67 19.4 48 8.9 51 51 NE 14 22 30.16 1021 10 16.0934 0 0
1:56 pm 13:56 Partly Cloudy 66 18.9 47 8.3 50 50 NNE 15 24 30.15 1021 10 16.0934 0 0
2:56 pm 14:56 Mostly Cloudy 68 20 46 7.8 45 45 N 10 17 30.15 1021 10 16.0934 0.01 0.254
3:56 pm 15:56 Partly Cloudy 69 20.6 45 7.2 42 42 N 10 17 30.14 1021 10 16.0934 0 0
4:56 pm 16:56 Mostly Sunny 69 20.6 43 6.1 39 39 N 7 11 30.14 1021 10 16.0934 0 0
5:56 pm 17:56 Mostly Sunny 69 20.6 43 6.1 39 39 VRB 6 9 30.14 1021 10 16.0934 0 0
6:56 pm 18:56 Sunny 68 20 43 6.1 40 40 N 10 17 30.14 1021 10 16.0934 0 0
8:56 pm 20:56 Clear 60 15.6 40 4.4 47 47 NNE 8 13 30.15 1021 10 16.0934 0 0
9:56 pm 21:56 Clear 59 15 41 5 51 51 NNE 9 15 30.16 1021 10 16.0934 0 0
10:56 pm 22:56 Clear 56 13.3 44 6.7 65 65 NE 10 17 30.18 1022 10 16.0934 0 0
11:56 pm 23:56 Clear 53 11.7 43 6.1 69 69 NNE 7 11 30.18 1022 10 16.0934 0 0

Powered by AerisWeather